Princeton, MN

7:24 PM CDT on April 24, 2017 (GMT -0500)
Princeton Municipal

Weather History for KPNM - May, 2014

Change the Weather History Date:

Friday, May 2, 2014

  Actual Average Record
Temperature  
Mean Temperature 48 °F -  
Max Temperature 60 °F 63 °F 80 °F (2015)
Min Temperature 37 °F 39 °F 28 °F (2002)
Degree Days  
Heating Degree Days 16    
Moisture  
Dew Point 38 °F    
Average Humidity 68    
Maximum Humidity 93    
Minimum Humidity 42    
Precipitation  
Precipitation 0.00 in - - ()
Sea Level Pressure  
Sea Level Pressure 29.68 in    
Wind  
Wind Speed 3 mph (SW)    
Max Wind Speed 12 mph    
Max Gust Speed 16 mph    
Visibility 10 miles    
Events Rain    
Averages and records for this station are not official NWS values.
T = Trace of Precipitation, MM = Missing Value Source: NWS Daily Summary

Daily Weather History Graph

Daily Weather History Graph

Search for Another Location

Airport or City:

Trip Planner

Search our weather history database for the weather conditions in past years. The results will help you decide how hot, cold, wet, or windy it might be!

Date:

Astronomy

May. 02, 2014 Rise Set
Actual Time 6:00 AM CDT 8:22 PM CDT
Civil Twilight 5:28 AM CDT 8:55 PM CDT
Nautical Twilight 4:47 AM CDT 9:36 PM CDT
Astronomical Twilight 4:00 AM CDT 10:23 PM CDT
Moon 8:35 AM CDT (5/2) 11:48 PM CDT (5/2)
Length of Visible Light 15h 27m
Length of Day
14h 21m
Waxing Crescent, 12% of the Moon is Illuminated
May 2
Waxing Crescent
May 6
First Quarter
May 14
Full
May 21
Last Quarter
May 28
New

Hourly Weather History & Observations

Time (CDT) Temp. Windchill Dew Point Humidity Pressure Visibility Wind Dir Wind Speed Gust Speed Precip Events Conditions
12:14 AM 37.4 °F - 35.6 °F 93% 29.82 in 10.0 mi Calm Calm - N/A   Overcast
12:33 AM 39.2 °F - 35.6 °F 87% 29.81 in 10.0 mi Calm Calm - N/A   Overcast
12:53 AM 39.2 °F - 37.4 °F 93% 29.80 in 10.0 mi Calm Calm - N/A   Overcast
1:13 AM 42.8 °F 41.1 °F 37.4 °F 81% 29.80 in 10.0 mi SSW 3.5 mph - N/A   Overcast
1:33 AM 42.8 °F - 37.4 °F 81% 29.79 in 10.0 mi Calm Calm - N/A   Overcast
1:53 AM 42.8 °F 41.1 °F 37.4 °F 81% 29.79 in 10.0 mi SSW 3.5 mph - N/A   Overcast
2:13 AM 42.8 °F 41.1 °F 37.4 °F 81% 29.78 in 10.0 mi SSW 3.5 mph - N/A   Overcast
2:33 AM 42.8 °F - 37.4 °F 81% 29.78 in 10.0 mi Calm Calm - N/A   Overcast
2:53 AM 42.8 °F - 37.4 °F 81% 29.77 in 10.0 mi Calm Calm - N/A   Overcast
3:13 AM 42.8 °F - 37.4 °F 81% 29.77 in 10.0 mi Calm Calm - N/A   Mostly Cloudy
3:33 AM 42.8 °F - 37.4 °F 81% 29.76 in 10.0 mi Calm Calm - N/A   Clear
3:53 AM 39.2 °F - 37.4 °F 93% 29.76 in 10.0 mi Calm Calm - N/A   Scattered Clouds
4:13 AM 39.2 °F - 37.4 °F 93% 29.76 in 10.0 mi Calm Calm - N/A   Clear
4:33 AM 41.0 °F - 37.4 °F 87% 29.75 in 10.0 mi Calm Calm - N/A   Clear
4:54 AM 41.0 °F 39.0 °F 37.4 °F 87% 29.75 in 10.0 mi WSW 3.5 mph - N/A   Scattered Clouds
5:13 AM 41.0 °F 39.0 °F 35.6 °F 81% 29.73 in 10.0 mi SSW 3.5 mph - N/A   Scattered Clouds
5:33 AM 41.0 °F 39.0 °F 35.6 °F 81% 29.74 in 10.0 mi SW 3.5 mph - N/A   Scattered Clouds
5:54 AM 41.0 °F - 35.6 °F 81% 29.72 in 10.0 mi Calm Calm - N/A   Mostly Cloudy
6:13 AM 41.0 °F - 35.6 °F 81% 29.72 in 10.0 mi Calm Calm - N/A   Scattered Clouds
6:33 AM 41.0 °F - 37.4 °F 87% 29.71 in 10.0 mi Calm Calm - N/A   Mostly Cloudy
6:54 AM 41.0 °F 39.0 °F 37.4 °F 87% 29.71 in 10.0 mi South 3.5 mph - N/A   Scattered Clouds
7:13 AM 42.8 °F 41.1 °F 37.4 °F 81% 29.71 in 10.0 mi SSW 3.5 mph - N/A   Scattered Clouds
7:33 AM 42.8 °F 40.1 °F 37.4 °F 81% 29.70 in 10.0 mi SSW 4.6 mph - N/A   Scattered Clouds
7:54 AM 42.8 °F 40.1 °F 37.4 °F 81% 29.71 in 10.0 mi WSW 4.6 mph - N/A   Scattered Clouds
8:13 AM 42.8 °F 41.1 °F 37.4 °F 81% 29.71 in 10.0 mi SW 3.5 mph - N/A   Mostly Cloudy
8:33 AM 44.6 °F 43.1 °F 37.4 °F 76% 29.70 in 10.0 mi South 3.5 mph - N/A   Mostly Cloudy
8:54 AM 44.6 °F - 37.4 °F 76% 29.69 in 10.0 mi Calm Calm - N/A   Mostly Cloudy
9:13 AM 46.4 °F 42.9 °F 39.2 °F 76% 29.67 in 10.0 mi SSE 6.9 mph - N/A   Mostly Cloudy
9:34 AM 48.2 °F - 39.2 °F 71% 29.65 in 10.0 mi South 6.9 mph - N/A   Scattered Clouds
9:53 AM 51.8 °F - 39.2 °F 62% 29.64 in 10.0 mi SSE 10.4 mph - N/A   Scattered Clouds
10:13 AM 51.8 °F - 39.2 °F 62% 29.62 in 10.0 mi SSE 8.1 mph - N/A   Scattered Clouds
10:33 AM 55.4 °F - 39.2 °F 54% 29.61 in 10.0 mi SE 8.1 mph - N/A   Scattered Clouds
10:53 AM 55.4 °F - 39.2 °F 54% 29.60 in 10.0 mi SE 10.4 mph - N/A   Scattered Clouds
11:13 AM 55.4 °F - 37.4 °F 51% 29.60 in 10.0 mi SSE 10.4 mph - N/A   Mostly Cloudy
11:33 AM 57.2 °F - 35.6 °F 44% 29.60 in 10.0 mi SE 10.4 mph - N/A   Overcast
11:53 AM 60.8 °F - 39.2 °F 45% 29.60 in 10.0 mi SSE 10.4 mph - N/A   Mostly Cloudy
12:13 PM 60.8 °F - 37.4 °F 42% 29.59 in 10.0 mi SSW 10.4 mph 16.1 mph N/A   Scattered Clouds
12:33 PM 59.0 °F - 37.4 °F 45% 29.59 in 10.0 mi SSW 11.5 mph - N/A   Scattered Clouds
1:13 PM 57.2 °F - 39.2 °F 51% 29.59 in 10.0 mi SSW 6.9 mph - N/A   Mostly Cloudy
1:34 PM 57.2 °F - 37.4 °F 48% 29.58 in 10.0 mi SSW 4.6 mph - N/A   Overcast
1:53 PM 57.2 °F - 39.2 °F 51% 29.58 in 10.0 mi SSW 6.9 mph - N/A   Overcast
2:13 PM 57.2 °F - 37.4 °F 48% 29.58 in 10.0 mi Calm Calm - N/A   Overcast
2:34 PM 57.2 °F - 39.2 °F 51% 29.58 in 10.0 mi West 4.6 mph - N/A   Overcast
2:53 PM 57.2 °F - 39.2 °F 51% 29.58 in 10.0 mi West 5.8 mph - N/A   Overcast
3:13 PM 55.4 °F - 39.2 °F 54% 29.59 in 10.0 mi West 6.9 mph - N/A   Overcast
3:34 PM 55.4 °F - 39.2 °F 54% 29.59 in 10.0 mi WNW 8.1 mph - N/A   Overcast
3:53 PM 55.4 °F - 39.2 °F 54% 29.60 in 10.0 mi NW 8.1 mph - N/A   Overcast
4:13 PM 57.2 °F - 39.2 °F 51% 29.60 in 10.0 mi NW 9.2 mph - N/A   Overcast
4:34 PM 57.2 °F - 42.8 °F 59% 29.61 in 10.0 mi North 8.1 mph - N/A   Scattered Clouds
4:53 PM 57.2 °F - 44.6 °F 63% 29.62 in 10.0 mi NNE 6.9 mph - N/A   Scattered Clouds
5:13 PM 57.2 °F - 42.8 °F 59% 29.62 in 10.0 mi NNE 8.1 mph - N/A   Overcast
5:34 PM 57.2 °F - 42.8 °F 59% 29.63 in 10.0 mi North 8.1 mph - N/A   Scattered Clouds
5:53 PM 55.4 °F - 42.8 °F 63% 29.64 in 10.0 mi NNE 5.8 mph - N/A   Scattered Clouds
6:13 PM 55.4 °F - 42.8 °F 63% 29.64 in 10.0 mi NNE 5.8 mph - N/A   Mostly Cloudy
6:33 PM 55.4 °F - 44.6 °F 67% 29.64 in 10.0 mi NNE 4.6 mph - N/A Rain Light Rain
6:53 PM 55.4 °F - 42.8 °F 63% 29.65 in 10.0 mi Calm Calm - N/A   Mostly Cloudy
7:13 PM 55.4 °F - 42.8 °F 63% 29.65 in 10.0 mi Calm Calm - N/A   Scattered Clouds
7:33 PM 55.4 °F - 42.8 °F 63% 29.66 in 10.0 mi Calm Calm - N/A   Scattered Clouds
7:53 PM 53.6 °F - 42.8 °F 67% 29.66 in 10.0 mi Calm Calm - N/A   Mostly Cloudy
8:13 PM 53.6 °F - 42.8 °F 67% 29.66 in 10.0 mi Calm Calm - N/A   Overcast
8:33 PM 51.8 °F - 42.8 °F 71% 29.67 in 10.0 mi NW 3.5 mph - N/A   Scattered Clouds
8:53 PM 50.0 °F - 39.2 °F 66% 29.67 in 10.0 mi Calm Calm - N/A   Clear
9:13 PM 50.0 °F - 37.4 °F 62% 29.67 in 10.0 mi WNW 4.6 mph - N/A   Clear
9:33 PM 48.2 °F - 35.6 °F 62% 29.68 in 10.0 mi West 3.5 mph - N/A   Clear
9:53 PM 44.6 °F 43.1 °F 35.6 °F 71% 29.68 in 10.0 mi WSW 3.5 mph - N/A   Clear
10:13 PM 44.6 °F 42.2 °F 33.8 °F 66% 29.68 in 10.0 mi WSW 4.6 mph - N/A   Clear
10:33 PM 48.2 °F - 35.6 °F 62% 29.68 in 10.0 mi West 5.8 mph - N/A   Clear
10:53 PM 48.2 °F - 35.6 °F 62% 29.69 in 10.0 mi West 9.2 mph - N/A   Clear
11:13 PM 46.4 °F 42.4 °F 33.8 °F 62% 29.69 in 10.0 mi West 8.1 mph - N/A   Clear
11:33 PM 46.4 °F 42.9 °F 33.8 °F 62% 29.70 in 10.0 mi West 6.9 mph - N/A   Clear
11:53 PM 46.4 °F 42.9 °F 33.8 °F 62% 29.70 in 10.0 mi West 6.9 mph - N/A   Clear